Torna al catalogo

COSMOS 1275 DEB

AttivoPO
NORAD 12708·DEBRIS·🇷🇺 Russia

Lanciato Jun 4, 1981 da Plesetsk Cosmodrome

Loading…

Prossimi Passaggi (prossime 24 ore)

TLE

AggiornatoSource: Space-Track

Epoca: Sep 14, 2026, 12:33 UTC

1 12708U 81053BC  26257.52297759  .00008335  00000-0  12438-2 0  9992
2 12708  82.8598 323.3678 0017622 232.7074 127.2531 14.74614452327051

Traccia COSMOS 1275 DEB in tempo reale con AllMySat

Download on the App Store